• In Slovakia
  • List of Countries
  • For 7 days
  • Water Temperature
  • Satellite Maps
  • Weather Map
  • Weather Widgets
  • user-avatar
    Login

    Hourly Weather Malyy Puyal

    Today, 25 April, Wednesday

    Time Temperature Precipitation Wind Pressure Humidity
    00:00 -2°C° 0 mm 1 mps 747 mmHg 93%
    01:00 -2°C° 0 mm 1 mps 747 mmHg 93%
    02:00 -2°C° 0 mm 1 mps 747 mmHg 92%
    03:00 -2°C° 0 mm 1 mps 748 mmHg 92%
    04:00 -1°C° 0 mm 1 mps 748 mmHg 90%
    05:00 -1°C° 0 mm 1 mps 748 mmHg 88%
    06:00 -1°C° 0 mm 0 mps 748 mmHg 86%
    07:00 +2°C° 0 mm 1 mps 749 mmHg 79%
    08:00 +4°C° 0 mm 1 mps 749 mmHg 73%
    09:00 +5°C° 0 mm 1 mps 749 mmHg 67%
    10:00 +6°C° 0 mm 1 mps 749 mmHg 63%
    11:00 +6°C° 0 mm 2 mps 749 mmHg 59%
    12:00 +7°C° 0 mm 2 mps 749 mmHg 55%
    13:00 +7°C° 0 mm 2 mps 749 mmHg 55%
    14:00 +7°C° 0 mm 3 mps 748 mmHg 55%
    15:00 +7°C° 0 mm 3 mps 748 mmHg 55%
    16:00 +7°C° 0 mm 3 mps 748 mmHg 60%
    17:00 +5°C° 0 mm 3 mps 748 mmHg 65%
    18:00 +4°C° 0 mm 3 mps 748 mmHg 71%
    19:00 +3°C° 0 mm 3 mps 748 mmHg 73%
    20:00 +1°C° 0 mm 4 mps 748 mmHg 76%
    21:00 0°C° 0 mm 4 mps 748 mmHg 79%
    22:00 0°C° 0 mm 4 mps 747 mmHg 78%
    23:00 0°C° 0 mm 5 mps 747 mmHg 76%

    Tomorrow, 26 April, Thursday

    Time Temperature Precipitation Wind Pressure Humidity
    00:00 0°C° 0 mm 5 mps 747 mmHg 75%
    01:00 0°C° 0.1 mm 5 mps 746 mmHg 76%
    02:00 +1°C° 0.1 mm 5 mps 746 mmHg 77%
    03:00 +1°C° 0.1 mm 5 mps 746 mmHg 79%
    04:00 +1°C° 0.1 mm 5 mps 745 mmHg 79%
    05:00 +1°C° 0.1 mm 5 mps 745 mmHg 80%
    06:00 +2°C° 0.1 mm 6 mps 744 mmHg 81%
    07:00 +2°C° 0.4 mm 6 mps 743 mmHg 81%
    08:00 +3°C° 0.4 mm 7 mps 743 mmHg 81%
    09:00 +4°C° 0.4 mm 7 mps 742 mmHg 82%
    10:00 +4°C° 1.3 mm 6 mps 742 mmHg 84%
    11:00 +4°C° 1.3 mm 6 mps 741 mmHg 87%
    12:00 +6°C° 1.3 mm 5 mps 741 mmHg 90%
    13:00 +6°C° 1.7 mm 5 mps 740 mmHg 91%
    14:00 +6°C° 1.7 mm 5 mps 739 mmHg 93%
    15:00 +6°C° 1.7 mm 5 mps 739 mmHg 94%
    16:00 +6°C° 0.4 mm 4 mps 738 mmHg 95%
    17:00 +7°C° 0.4 mm 3 mps 738 mmHg 95%
    18:00 +7°C° 0.4 mm 3 mps 737 mmHg 96%
    19:00 +7°C° 0.1 mm 2 mps 737 mmHg 97%
    20:00 +6°C° 0.1 mm 2 mps 737 mmHg 97%
    21:00 +7°C° 0.1 mm 1 mps 737 mmHg 98%
    22:00 +7°C° 0 mm 1 mps 737 mmHg 98%
    23:00 +7°C° 0 mm 1 mps 737 mmHg 97%

    Day after tomorrow, 27 April, Friday

    Time Temperature Precipitation Wind Pressure Humidity
    00:00 +6°C° 0 mm 2 mps 737 mmHg 97%
    01:00 +6°C° 0 mm 1 mps 738 mmHg 97%
    02:00 +6°C° 0 mm 1 mps 738 mmHg 96%
    03:00 +5°C° 0 mm 1 mps 739 mmHg 96%
    04:00 +5°C° 0 mm 2 mps 739 mmHg 96%
    05:00 +5°C° 0 mm 2 mps 740 mmHg 95%
    06:00 +6°C° 0 mm 2 mps 740 mmHg 95%
    07:00 +7°C° 0 mm 3 mps 741 mmHg 91%
    08:00 +7°C° 0 mm 4 mps 742 mmHg 86%
    09:00 +10°C° 0 mm 4 mps 743 mmHg 82%
    10:00 +9°C° 0.3 mm 5 mps 744 mmHg 79%
    11:00 +10°C° 0.3 mm 6 mps 744 mmHg 77%
    12:00 +10°C° 0.3 mm 7 mps 745 mmHg 75%
    13:00 +10°C° 0.1 mm 6 mps 746 mmHg 72%
    14:00 +11°C° 0.1 mm 6 mps 746 mmHg 69%
    15:00 +11°C° 0.1 mm 6 mps 747 mmHg 66%
    16:00 +12°C° 0 mm 5 mps 747 mmHg 67%
    17:00 +11°C° 0 mm 3 mps 747 mmHg 69%
    18:00 +12°C° 0 mm 2 mps 748 mmHg 70%
    19:00 +10°C° 0 mm 2 mps 748 mmHg 74%
    20:00 +9°C° 0 mm 2 mps 748 mmHg 78%
    21:00 +7°C° 0 mm 2 mps 748 mmHg 82%
    22:00 +7°C° 0 mm 2 mps 748 mmHg 82%
    23:00 +7°C° 0 mm 2 mps 748 mmHg 83%

    28 April, Saturday

    Time Temperature Precipitation Wind Pressure Humidity
    00:00 +7°C° 0 mm 2 mps 748 mmHg 83%
    01:00 +7°C° 0 mm 2 mps 748 mmHg 83%
    02:00 +7°C° 0 mm 1 mps 748 mmHg 83%
    03:00 +7°C° 0 mm 1 mps 748 mmHg 83%
    04:00 +7°C° 0 mm 1 mps 748 mmHg 85%
    05:00 +8°C° 0 mm 1 mps 748 mmHg 86%
    06:00 +7°C° 0 mm 2 mps 748 mmHg 87%
    07:00 +8°C° 0.1 mm 1 mps 747 mmHg 86%
    08:00 +9°C° 0.1 mm 1 mps 747 mmHg 84%
    09:00 +9°C° 0.1 mm 0 mps 747 mmHg 82%
    10:00 +10°C° 0.5 mm 1 mps 746 mmHg 80%
    11:00 +11°C° 0.5 mm 1 mps 746 mmHg 78%
    12:00 +10°C° 0.5 mm 2 mps 746 mmHg 75%
    13:00 +12°C° 0.5 mm 2 mps 745 mmHg 74%
    14:00 +12°C° 0.5 mm 2 mps 745 mmHg 72%
    15:00 +11°C° 0.5 mm 3 mps 745 mmHg 70%
    16:00 +11°C° 0.1 mm 3 mps 745 mmHg 71%
    17:00 +10°C° 0.1 mm 3 mps 745 mmHg 73%
    18:00 +10°C° 0.1 mm 2 mps 746 mmHg 75%
    19:00 +9°C° 0.1 mm 2 mps 746 mmHg 78%
    20:00 +8°C° 0.1 mm 2 mps 746 mmHg 81%
    21:00 +7°C° 0.1 mm 2 mps 746 mmHg 84%
    22:00 +5°C° 0.1 mm 3 mps 747 mmHg 85%
    23:00 +5°C° 0.1 mm 3 mps 747 mmHg 86%

    29 April, Sunday

    Time Temperature Precipitation Wind Pressure Humidity
    00:00 +4°C° 0.1 mm 3 mps 747 mmHg 87%
    01:00 +4°C° 0 mm 3 mps 747 mmHg 87%
    02:00 +4°C° 0 mm 3 mps 748 mmHg 88%
    03:00 +3°C° 0 mm 4 mps 748 mmHg 88%
    04:00 +4°C° 0 mm 4 mps 748 mmHg 86%
    05:00 +4°C° 0 mm 4 mps 749 mmHg 84%
    06:00 +3°C° 0 mm 5 mps 749 mmHg 83%
    07:00 +6°C° 0 mm 5 mps 749 mmHg 77%
    08:00 +7°C° 0 mm 6 mps 750 mmHg 71%
    09:00 +9°C° 0 mm 6 mps 750 mmHg 66%
    10:00 +9°C° 0 mm 6 mps 751 mmHg 61%
    11:00 +10°C° 0 mm 6 mps 751 mmHg 57%
    12:00 +11°C° 0 mm 6 mps 751 mmHg 52%
    13:00 +11°C° 0.1 mm 6 mps 751 mmHg 50%
    14:00 +13°C° 0.1 mm 6 mps 751 mmHg 47%
    15:00 +13°C° 0.1 mm 5 mps 752 mmHg 44%
    16:00 +12°C° 0 mm 4 mps 752 mmHg 47%
    17:00 +12°C° 0 mm 3 mps 752 mmHg 51%
    18:00 +12°C° 0 mm 2 mps 752 mmHg 55%
    19:00 +9°C° 0 mm 2 mps 752 mmHg 60%
    20:00 +8°C° 0 mm 2 mps 752 mmHg 65%
    21:00 +7°C° 0 mm 1 mps 753 mmHg 71%
    22:00 +6°C° 0 mm 1 mps 752 mmHg 73%
    23:00 +6°C° 0 mm 1 mps 752 mmHg 75%

    30 April, Monday

    Time Temperature Precipitation Wind Pressure Humidity
    00:00 +4°C° 0 mm 0 mps 752 mmHg 77%
    01:00 +5°C° 0 mm 1 mps 752 mmHg 77%
    02:00 +6°C° 0 mm 1 mps 752 mmHg 77%
    03:00 +6°C° 0 mm 1 mps 752 mmHg 77%
    04:00 +6°C° 0.1 mm 1 mps 752 mmHg 77%
    05:00 +6°C° 0.1 mm 1 mps 752 mmHg 77%
    06:00 +6°C° 0.1 mm 2 mps 752 mmHg 78%
    07:00 +7°C° 0 mm 2 mps 751 mmHg 73%
    08:00 +9°C° 0 mm 2 mps 751 mmHg 69%
    09:00 +10°C° 0 mm 2 mps 751 mmHg 64%
    10:00 +12°C° 0 mm 2 mps 751 mmHg 62%
    11:00 +13°C° 0 mm 2 mps 751 mmHg 59%
    12:00 +14°C° 0 mm 2 mps 751 mmHg 56%
    13:00 +14°C° 0 mm 2 mps 751 mmHg 58%
    14:00 +14°C° 0 mm 2 mps 750 mmHg 61%
    15:00 +14°C° 0 mm 2 mps 750 mmHg 63%
    16:00 +13°C° 0 mm 2 mps 750 mmHg 67%
    17:00 +13°C° 0 mm 2 mps 750 mmHg 72%
    18:00 +13°C° 0 mm 2 mps 750 mmHg 76%
    19:00 +12°C° 0 mm 2 mps 750 mmHg 81%
    20:00 +10°C° 0 mm 3 mps 749 mmHg 87%
    21:00 +9°C° 0 mm 3 mps 749 mmHg 93%
    22:00 +9°C° 0 mm 3 mps 749 mmHg 93%
    23:00 +9°C° 0 mm 3 mps 749 mmHg 93%
    Show more